Location: Unspecified
(0.0000°N, 0.0000°E)
Time: 14:35:45
(UTC+00:00)

INTEGRAL - Pass Details

Date: 19 January 2022
Orbit: 2374 x 147106 km, 74.7° (Epoch: 28 May)

Event Time Altitude Azimuth Distance (km) Brightness Sun altitude
Rises 00:02:21 0° 23° (NNE) 127,328 13.5 -69.5°
Reaches altitude 10° 01:53:58 10° 21° (NNE) 132,230 13.6 -57.5°
Maximum altitude 06:27:11 25° 357° (N) 141,774 13.7 3.9°
Drops below altitude 10° 10:38:02 10° 332° (NNW) 149,508 13.9 59.6°
Sets 12:04:59 0° 329° (NNW) 151,916 13.9 69.7°
